Stations météo

réclame
Mon MeteoGroup
Mont-De-Marsan, France (7607): Température de l'air & dewpoint: 14.11.2017 12:00:00 - 20.11.2017 12:00:00 (CET)Mont-De-Marsan, France (7607): Température de l'air 5cm: 14.11.2017 12:00:00 - 20.11.2017 12:00:00 (CET)Mont-De-Marsan, France (7607): Température de l'air -20cm & Température de l'air -100cm: 14.11.2017 12:00:00 - 20.11.2017 12:00:00 (CET)Mont-De-Marsan, France (7607): Vitesse du vent & gusts: 14.11.2017 12:00:00 - 20.11.2017 12:00:00 (CET)Mont-De-Marsan, France (7607): Direction du vent: 14.11.2017 12:00:00 - 20.11.2017 12:00:00 (CET)Mont-De-Marsan, France (7607): reduced air pressure: 14.11.2017 12:00:00 - 20.11.2017 12:00:00 (CET)Mont-De-Marsan, France (7607): visibility: 14.11.2017 12:00:00 - 20.11.2017 12:00:00 (CET)Mont-De-Marsan, France (7607): Ensoleillement: 14.11.2017 12:00:00 - 20.11.2017 12:00:00 (CET)Mont-De-Marsan, France (7607): Quantités de précipitations: 14.11.2017 12:00:00 - 20.11.2017 12:00:00 (CET)
Date & Time tt [°C] td [°C] tt 5cm [°C] tt -20cm [°C] tt -100cm [°C] ff [km/h] ff [knt] fx [km/h] fx [knt] dd ppp [hPa] vv [km] sd [min] rr [mm]
20.11.2017 12:00:00 9,0 6,8 9,5 10,6 13,2 13 7 21 12 E 1025,6 10 11 0,0
20.11.2017 11:00:00 7,4 6,7 7,8 10,5 13,2 11 6 18 10 E 1025,9 10 0 0,0
20.11.2017 10:00:00 6,6 6,3 5,2 10,6 13,2 9 5 18 10 ESE 1025,6 9 0 0,0
20.11.2017 09:00:00 4,5 4,2 1,0 10,5 13,2 5 3 15 8 - 1025,9 1,7 0 0,0
20.11.2017 08:00:00 1,4 1,1 -3,1 10,6 13,2 11 6 13 7 E 1025,8 2,3 0 0,0
20.11.2017 07:00:00 -1,3 -1,9 -3,8 10,4 13,2 5 3 7 4 E 1025,9 9 0 0,0
20.11.2017 06:00:00 -2,1 -2,8 -4,9 10,6 13,3 5 3 6 3 E 1025,9 10 0 0,0
20.11.2017 05:00:00 -1,9 -2,7 -4,7 10,6 13,3 4 2 8 4 ENE 1025,7 10 0 0,0
20.11.2017 04:00:00 -1,9 -2,7 -4,3 10,9 13,3 5 3 8 4 ENE 1025,8 10 0 0,0
20.11.2017 03:00:00 -1,5 -2,2 -4,5 10,8 13,3 5 3 7 4 ENE 1026,1 10 0 0,0
20.11.2017 02:00:00 -1,1 -1,7 -3,6 11,0 13,3 4 2 9 5 E 1026,6 10 0 0,0
20.11.2017 01:00:00 -1,0 -1,8 -3,8 11,0 13,3 5 3 9 5 E 1027,0 10 0 0,0
20.11.2017 00:00:00 -0,2 -0,9 -4,2 11,0 13,3 2 1 7 4 E 1027,2 10 0 0,0
19.11.2017 23:00:00 1,2 0,5 -3,9 11,1 13,3 0 0 5 3 N 1027,3 10 0 0,0
19.11.2017 22:00:00 1,8 0,9 -2,4 11,2 13,3 0 0 10 5 N 1027,2 10 0 0,0
19.11.2017 21:00:00 2,8 1,5 -2,7 11,2 13,3 5 3 7 4 ENE 1026,8 10 0 0,0
19.11.2017 20:00:00 4,0 2,8 -2,4 11,2 13,4 5 3 8 4 E 1026,4 10 0 0,0
19.11.2017 19:00:00 5,6 3,8 -1,0 11,1 13,3 3 2 11 6 E 1026,3 36 0 0,0
19.11.2017 18:00:00 7,2 4,3 1,1 11,3 13,4 5 3 7 4 NNW 1025,9 10 4 0,0
19.11.2017 17:00:00 12,7 4,4 14,4 11,4 13,4 0 0 5 3 N 1025,3 10 60 0,0
19.11.2017 16:00:00 13,5 4,6 17,2 11,4 13,4 4 2 8 4 - 1025,3 10 60 0,0
19.11.2017 15:00:00 13,6 5,2 18,6 11,2 13,4 2 1 7 4 - 1025,4 10 60 0,0
19.11.2017 14:00:00 11,0 4,9 16,7 10,9 13,4 4 2 8 4 - 1026,0 10 60 0,0
19.11.2017 13:00:00 7,1 4,9 8,5 10,6 13,4 0 0 6 3 N 1026,9 10 58 0,0
19.11.2017 12:00:00 3,9 3,6 4,8 10,7 13,4 0 0 3 2 N 1027,4 0,6 4 0,0
19.11.2017 11:00:00 1,3 1,0 2,1 10,6 13,4 0 0 4 2 N 1027,5 0,3 0 0,0
19.11.2017 10:00:00 -0,6 -0,9 -0,4 10,6 13,4 0 0 5 3 N 1027,1 0,3 0 0,0
19.11.2017 09:00:00 -1,6 -1,9 -1,8 10,5 13,4 0 0 5 3 N 1027,0 0,4 0 0,0
19.11.2017 08:00:00 -1,9 -2,2 -2,1 10,7 13,4 4 2 5 3 E 1026,5 0,6 0 0,0
19.11.2017 07:00:00 -1,9 -2,3 -2,1 10,8 13,5 4 2 5 3 E 1026,2 0,6 0 0,0
19.11.2017 06:00:00 -1,9 -2,3 -2,6 10,9 13,5 4 2 5 3 - 1026,1 1,1 0 0,0
19.11.2017 05:00:00 -2,0 -2,4 -4,0 10,9 13,5 4 2 6 3 NNE 1025,8 1,7 0 0,0
19.11.2017 04:00:00 -2,3 -2,7 -4,1 11,0 13,5 2 1 6 4 ESE 1025,6 1,5 0 0,0
19.11.2017 03:00:00 -2,3 -2,7 -5,6 11,2 13,5 5 3 6 3 ENE 1025,9 0,9 0 0,0
19.11.2017 02:00:00 -2,1 -2,7 -5,6 11,2 13,5 5 3 6 3 ENE 1025,7 1,2 0 0,0
19.11.2017 01:00:00 -1,2 -1,8 -5,8 11,3 13,5 4 2 5 3 E 1026,0 10 0 0,0
19.11.2017 00:00:00 -0,2 -0,9 -5,8 11,4 13,5 0 0 4 2 N 1025,8 10 0 0,0
18.11.2017 23:00:00 0,3 -0,3 -5,0 11,6 13,5 0 0 3 1 N 1025,9 10 0 0,0
18.11.2017 22:00:00 1,7 1,1 -4,5 11,6 13,5 0 0 3 1 N 1026,1 9 0 0,0
18.11.2017 21:00:00 1,8 1,1 -2,6 11,7 13,5 0 0 4 2 N 1026,0 7 0 0,0
18.11.2017 20:00:00 3,9 3,2 -2,6 11,7 13,5 2 1 4 2 ENE 1025,7 10 0 0,0
18.11.2017 19:00:00 4,7 3,4 -1,4 11,7 13,6 0 0 4 2 N 1025,5 7 0 0,0
18.11.2017 18:00:00 7,9 5,0 2,2 11,7 13,6 0 0 9 5 N 1025,2 10 5 0,0
18.11.2017 17:00:00 12,2 6,7 12,8 12,0 13,6 5 3 8 4 - 1024,7 10 60 0,0
18.11.2017 16:00:00 13,2 5,8 17,0 12,1 13,6 2 1 8 4 - 1024,5 10 60 0,0
18.11.2017 15:00:00 12,4 6,2 18,2 12,1 13,6 4 2 9 5 - 1024,5 10 60 0,0
18.11.2017 14:00:00 10,6 6,5 13,8 11,8 13,6 4 2 7 4 - 1025,0 10 60 0,0
18.11.2017 13:00:00 6,9 6,5 8,8 11,4 13,6 0 0 8 4 N 1025,6 10 8 0,0
18.11.2017 12:00:00 5,3 5,0 6,8 11,3 13,6 2 1 8 4 - 1026,3 4,8 0 0,0
18.11.2017 11:00:00 3,3 3,0 5,4 11,2 13,7 0 0 19 10 N 1026,2 0,4 7 0,0
18.11.2017 10:00:00 2,0 1,7 2,7 11,1 13,6 2 1 15 8 - 1026,2 0,4 1 0,0
18.11.2017 09:00:00 1,6 1,3 0,3 11,2 13,7 8 4 12 6 NNE 1025,8 0,3 0 0,0
18.11.2017 08:00:00 0,2 -0,1 -1,2 11,1 13,7 0 0 4 2 N 1025,0 0,3 0 0,0
18.11.2017 07:00:00 -0,5 -0,8 -1,3 11,1 13,7 4 2 6 3 ENE 1024,6 1,6 0 0,0
18.11.2017 06:00:00 -0,2 -0,5 -0,9 11,2 13,7 0 0 5 3 N 1024,5 0,1 0 0,0
18.11.2017 05:00:00 0,8 0,5 -0,1 11,4 13,7 4 2 5 3 NE 1024,6 0,5 0 0,0
18.11.2017 04:00:00 1,3 0,9 1,0 11,6 13,7 0 0 3 2 N 1024,6 0,4 0 0,0
18.11.2017 03:00:00 1,1 0,8 -0,9 11,5 13,7 0 0 3 2 N 1024,6 0,5 0 0,0
18.11.2017 02:00:00 0,8 0,2 -3,5 11,6 13,7 0 0 3 2 N 1024,0 4,8 0 0,0
18.11.2017 01:00:00 1,6 0,7 -3,3 11,6 13,7 0 0 2 1 N 1024,3 20 0 0,0
18.11.2017 00:00:00 1,9 0,7 -2,8 11,8 13,7 0 0 2 1 N 1024,4 10 0 0,0
17.11.2017 23:00:00 2,9 1,9 -2,4 11,9 13,8 0 0 0 0 N 1024,2 10 0 0,0
17.11.2017 22:00:00 3,9 2,9 -2,0 11,9 13,8 0 0 2 1 N 1024,2 10 0 0,0
17.11.2017 21:00:00 4,8 3,5 -1,4 12,0 13,8 0 0 3 2 N 1024,1 10 0 0,0
17.11.2017 20:00:00 5,8 3,6 -0,8 11,9 13,8 0 0 2 1 N 1023,8 10 0 0,0
17.11.2017 19:00:00 7,4 4,5 0,4 11,9 13,8 0 0 6 3 N 1023,6 10 0 0,0
17.11.2017 18:00:00 10,2 4,3 3,0 12,0 13,8 4 2 11 6 NNW 1023,0 10 6 0,0
17.11.2017 17:00:00 15,3 5,2 15,9 12,0 13,8 0 0 8 5 N 1022,8 10 57 0,0
17.11.2017 16:00:00 16,4 5,6 18,9 11,7 13,8 5 3 13 7 WSW 1022,6 10 60 0,0
17.11.2017 15:00:00 16,1 6,0 20,7 11,9 13,9 5 3 14 8 - 1022,8 10 60 0,0
17.11.2017 14:00:00 15,1 5,6 19,9 11,7 13,9 5 3 13 7 WSW 1023,1 10 60 0,0
17.11.2017 13:00:00 13,5 5,1 18,8 11,6 13,9 7 4 12 7 WSW 1023,7 12 60 0,0
17.11.2017 12:00:00 11,4 5,9 14,6 11,4 13,9 5 3 10 5 - 1024,3 7 60 0,0
17.11.2017 11:00:00 8,8 5,0 12,6 11,5 13,9 5 3 11 6 W 1024,9 10 57 0,0
17.11.2017 10:00:00 5,9 3,9 4,4 11,2 13,9 0 0 5 3 N 1024,8 10 36 0,0
17.11.2017 09:00:00 2,8 2,1 -1,8 11,1 13,9 4 2 6 3 ENE 1024,9 10 31 0,0
17.11.2017 08:00:00 0,7 -0,2 -1,9 11,1 13,9 0 0 5 3 N 1024,6 10 0 0,0
17.11.2017 07:00:00 0,7 -0,2 -2,8 11,1 14,0 0 0 3 2 N 1024,3 10 0 0,0
17.11.2017 06:00:00 0,3 -0,4 -2,8 11,1 14,0 2 1 6 3 E 1024,2 10 0 0,0
17.11.2017 05:00:00 0,6 -0,3 0,0 11,3 14,0 5 3 8 4 ENE 1024,1 10 0 0,0
17.11.2017 04:00:00 1,2 0,8 -1,5 11,4 14,0 0 0 6 3 N 1024,3 10 0 0,0
17.11.2017 03:00:00 -0,3 -1,3 -2,9 11,3 14,0 5 3 7 4 ENE 1024,0 10 0 0,0
17.11.2017 02:00:00 1,0 0,3 -3,1 11,6 14,1 0 0 3 2 N 1024,1 10 0 0,0
17.11.2017 01:00:00 0,0 -1,0 -3,0 11,6 14,1 0 0 6 4 N 1024,4 10 0 0,0
17.11.2017 00:00:00 1,2 0,3 -2,8 11,5 14,1 2 1 6 4 E 1024,4 10 0 0,0
16.11.2017 23:00:00 1,9 1,2 -2,0 11,7 14,1 4 2 6 3 ENE 1024,1 10 0 0,0
16.11.2017 22:00:00 2,8 1,3 -1,9 11,7 14,1 4 2 6 3 ENE 1023,9 10 0 0,0
16.11.2017 21:00:00 3,7 1,9 -1,0 11,8 14,1 4 2 5 3 E 1024,0 10 0 0,0
16.11.2017 20:00:00 4,7 2,4 -0,9 11,8 14,1 0 0 3 2 N 1023,8 10 0 0,0
16.11.2017 19:00:00 6,4 3,5 0,4 11,7 14,1 2 1 3 2 E 1023,5 10 0 0,0
16.11.2017 18:00:00 8,0 3,3 2,7 11,6 14,2 0 0 3 1 N 1022,9 10 5 0,0
16.11.2017 17:00:00 14,0 2,5 15,2 11,9 14,1 0 0 8 4 N 1022,5 10 60 0,0
16.11.2017 16:00:00 14,6 2,1 16,6 11,3 14,1 0 0 10 5 N 1022,1 10 58 0,0
16.11.2017 15:00:00 14,6 3,4 19,1 11,4 14,2 2 1 7 4 WSW 1021,9 28 60 0,0
16.11.2017 14:00:00 14,0 3,2 20,1 11,7 14,2 0 0 5 3 N 1022,1 10 60 0,0
16.11.2017 13:00:00 12,2 3,9 18,1 11,7 14,2 0 0 5 3 N 1022,5 10 60 0,0
16.11.2017 12:00:00 9,8 4,0 13,2 11,4 14,2 0 0 5 3 N 1023,1 10 60 0,0
16.11.2017 11:00:00 6,5 3,1 12,2 11,4 14,3 4 2 7 4 - 1023,4 10 56 0,0
16.11.2017 10:00:00 3,2 1,2 1,8 11,3 14,2 0 0 6 3 N 1023,0 10 60 0,0
16.11.2017 09:00:00 -0,6 -1,4 -4,1 11,2 14,2 5 3 16 9 ENE 1022,7 10 42 0,0
16.11.2017 08:00:00 -2,2 -2,9 -5,4 11,2 14,3 4 2 6 3 E 1022,4 10 0 0,0
16.11.2017 07:00:00 -2,3 -3,0 -5,8 11,3 14,3 4 2 5 3 NE 1022,0 17 0 0,0
16.11.2017 06:00:00 -2,4 -3,1 -5,8 11,4 14,3 4 2 7 4 E 1021,6 10 0 0,0
16.11.2017 05:00:00 -1,9 -2,6 -5,6 11,5 14,3 4 2 6 3 NNE 1021,5 10 0 0,0
16.11.2017 04:00:00 -1,8 -2,5 -4,8 11,8 14,3 4 2 6 3 E 1021,4 10 0 0,0
16.11.2017 03:00:00 -2,0 -3,0 -5,0 11,8 14,3 5 3 6 3 E 1021,8 10 0 0,0
16.11.2017 02:00:00 -1,0 -1,8 -4,8 11,9 14,3 0 0 4 2 N 1021,8 10 0 0,0
16.11.2017 01:00:00 -0,8 -1,6 -4,7 12,0 14,4 0 0 2 1 N 1022,2 10 0 0,0
16.11.2017 00:00:00 -0,4 -1,4 -4,0 12,0 14,4 0 0 2 1 N 1022,0 10 0 0,0
15.11.2017 23:00:00 0,5 -0,4 -3,8 12,0 14,4 0 0 5 3 N 1022,2 10 0 0,0
15.11.2017 22:00:00 1,6 0,3 -3,3 12,2 14,4 0 0 3 1 N 1022,1 10 0 0,0
15.11.2017 21:00:00 3,6 1,3 -2,5 12,2 14,4 0 0 6 4 N 1022,1 10 0 0,0
15.11.2017 20:00:00 4,6 1,4 -1,3 12,1 14,4 2 1 12 7 - 1022,3 10 0 0,0
15.11.2017 19:00:00 5,4 1,5 0,2 12,0 14,4 11 6 16 9 NNE 1021,8 10 0 0,0
15.11.2017 18:00:00 7,4 2,3 2,6 12,0 14,4 9 5 14 7 N 1021,5 10 8 0,0
15.11.2017 17:00:00 11,3 3,1 14,8 12,0 14,4 5 3 10 5 ENE 1021,1 10 60 0,0
15.11.2017 16:00:00 11,5 3,0 16,0 12,2 14,5 5 3 13 7 - 1021,2 10 60 0,0
15.11.2017 15:00:00 11,6 3,1 16,5 11,9 14,5 5 3 11 6 - 1021,4 10 53 0,0
15.11.2017 14:00:00 10,8 3,6 14,5 11,7 14,5 4 2 9 5 - 1021,8 10 45 0,0
15.11.2017 13:00:00 9,6 2,7 13,9 12,0 14,5 2 1 6 3 - 1022,7 10 47 0,0
15.11.2017 12:00:00 8,6 3,0 13,0 11,9 14,5 4 2 7 4 - 1023,6 10 60 0,0
15.11.2017 11:00:00 5,9 2,5 5,7 12,0 14,5 4 2 7 4 - 1024,0 10 49 0,0
15.11.2017 10:00:00 2,1 1,1 0,2 11,8 14,5 4 2 5 3 - 1024,6 10 52 0,0
15.11.2017 09:00:00 -1,2 -1,8 -4,7 11,6 14,5 0 0 4 2 N 1024,7 10 14 0,0
15.11.2017 08:00:00 -2,4 -3,0 -5,0 11,7 14,5 4 2 9 5 ENE 1024,5 10 0 0,0
15.11.2017 07:00:00 -2,2 -2,9 -5,2 11,9 14,6 5 3 6 3 E 1024,6 10 0 0,0
15.11.2017 06:00:00 -1,4 -2,0 -4,7 12,1 14,6 0 0 5 3 N 1024,6 13 0 0,0
15.11.2017 05:00:00 -1,1 -1,7 -4,2 12,1 14,6 0 0 8 4 N 1024,6 10 0 0,0
15.11.2017 04:00:00 -1,2 -1,9 -4,6 12,2 14,6 5 3 8 4 E 1024,6 10 0 0,0
15.11.2017 03:00:00 -2,1 -3,2 -4,8 12,4 14,6 4 2 8 4 NE 1025,3 10 0 0,0
15.11.2017 02:00:00 -1,9 -3,0 -4,6 12,4 14,6 4 2 8 4 ENE 1025,4 10 0 0,0
15.11.2017 01:00:00 -1,3 -2,3 -4,6 12,6 14,6 8 4 10 6 ENE 1026,1 10 0 0,0
15.11.2017 00:00:00 -0,4 -1,4 -4,8 12,6 14,6 4 2 4 2 NE 1026,4 10 0 0,0
14.11.2017 23:00:00 0,8 -0,5 -4,2 12,7 14,6 0 0 5 3 N 1026,8 10 0 0,0
14.11.2017 22:00:00 1,2 -0,4 -3,2 12,6 14,6 0 0 9 5 N 1027,0 19 0 0,0
14.11.2017 21:00:00 2,7 1,4 -2,3 12,8 14,6 2 1 9 5 NE 1026,6 10 0 0,0
14.11.2017 20:00:00 3,7 1,4 -1,7 12,9 14,6 0 0 9 5 N 1026,8 10 0 0,0
14.11.2017 19:00:00 5,9 1,4 -0,6 12,9 14,6 9 5 14 7 N 1026,7 10 0 0,0
14.11.2017 18:00:00 6,6 1,1 0,9 12,8 14,6 8 4 12 6 N 1026,2 10 9 0,0
14.11.2017 17:00:00 10,3 1,9 12,5 12,8 14,6 9 5 17 9 N 1025,7 10 60 0,0
14.11.2017 16:00:00 11,4 1,9 16,9 12,7 14,7 11 6 17 9 NNE 1025,8 10 60 0,0
14.11.2017 15:00:00 11,4 2,1 16,1 12,7 14,7 8 4 17 9 N 1026,1 10 60 0,0
14.11.2017 14:00:00 10,8 2,1 17,8 12,6 14,7 11 6 20 11 NE 1026,7 10 60 0,0
14.11.2017 13:00:00 10,0 1,9 17,4 12,4 14,7 11 6 18 10 NNE 1027,6 10 60 0,0
14.11.2017 12:00:00 8,8 2,8 12,1 12,5 14,7 4 2 9 5 - 1028,3 10 60 0,0

tt = Température de l'air
td = dewpoint
tt 5cm = Température de l'air 5cm
tt -20cm = Température de l'air -20cm
tt -100cm = Température de l'air -100cm
ff = Vitesse du vent
fx = gusts
dd = Direction du vent
ppp = reduced air pressure
vv = visibility
sd = Ensoleillement
rr = Quantités de précipitations

stations d'obs. à proximité